Weather observations for the past three days for
Delaware Municipal Airport
Imperial (Metric)
Date Time (edt) Wind (mph) Vis. (mi.) Weather Sky Cond. Temperature (ºF) Relative Humidity Wind Chill (°F) Heat Index (°F) Pressure Precipitation (in)
Air Dwpt 6 hour altimeter (in) sea level (mb) 1 hr 3 hr 6 hr
Max. Min.
13 03:35 Calm 10.00 Fair CLR 62.6 51.8 68% 29.99 0.0
13 03:15 Calm 10.00 Fair CLR 62.6 51.8 68% 29.99 0.0
13 02:55 Calm 10.00 Fair CLR 62.6 51.8 68% 29.99 0.0
13 02:35 Calm 10.00 Fair CLR 64.4 51.8 64% 29.99 0.0
13 02:15 Calm 10.00 Fair CLR 64.4 51.8 64% 29.99 0.0
13 01:55 S 5 10.00 Fair CLR 64.4 51.8 64% 29.99 0.0
13 01:35 S 3 10.00 Fair CLR 64.4 51.8 64% 29.99 0.0
13 01:15 SW 3 10.00 Fair CLR 66.2 50 56% 29.99 0.0
13 00:55 SW 5 10.00 Fair CLR 66.2 50 56% 29.99 0.0
13 00:35 S 10 10.00 Fair CLR 68 50 53% 29.98 0.0
13 00:15 S 6 10.00 Fair CLR 68 50 53% 29.99 0.0
12 23:55 S 7 10.00 Fair CLR 69.8 50 50% 29.99 0.0
12 23:35 S 7 10.00 Fair CLR 69.8 50 50% 29.99 0.0
12 23:15 S 6 10.00 Fair CLR 69.8 50 50% 29.99 0.0
12 22:55 S 6 10.00 Fair CLR 69.8 50 50% 29.99 0.0
12 22:35 S 6 10.00 Fair CLR 69.8 50 50% 29.99 0.0
12 22:15 Calm 10.00 Fair CLR 69.8 50 50% 29.99 0.0
12 21:55 Calm 10.00 Fair CLR 69.8 48.2 46% 29.99 0.0
12 21:35 Calm 10.00 Fair CLR 71.6 48.2 44% 29.98 0.0
12 21:15 Calm 10.00 Fair CLR 73.4 46.4 38% 29.98 0.0
12 20:55 Calm 10.00 Fair CLR 77 46.4 34% 78 29.98 0.0
12 20:35 SW 3 10.00 Fair CLR 78.8 46.4 32% 79 29.99 0.0
12 20:15 SW 3 10.00 Fair CLR 80.6 46.4 30% 80 29.99 0.0
12 19:55 SW 3 10.00 Fair CLR 80.6 46.4 30% 80 29.99 0.0
12 19:35 SW 6 10.00 Fair CLR 80.6 44.6 28% 79 29.99 0.0
12 19:15 SW 8 10.00 Fair CLR 82.4 44.6 26% 81 29.99 0.0
12 18:55 SW 6 10.00 Fair CLR 80.6 44.6 28% 79 29.98 0.0
12 18:35 SW 8 10.00 Fair CLR 82.4 44.6 26% 81 29.98 0.0
12 18:15 S 7 10.00 Fair CLR 82.4 44.6 26% 81 29.98 0.0
12 17:55 SW 6 10.00 Fair CLR 82.4 44.6 26% 81 29.98 0.0
12 17:35 S 9 10.00 Fair CLR 82.4 44.6 26% 81 29.99 0.0
12 17:15 W 3 10.00 Fair CLR 82.4 44.6 26% 81 29.99 0.0
12 16:55 S 7 10.00 Fair CLR 82.4 44.6 26% 81 30 0.0
12 16:35 SW 7 10.00 Fair CLR 82.4 44.6 26% 81 30 0.0
12 16:15 SW 3 10.00 Fair CLR 82.4 44.6 26% 81 30 0.0
12 15:55 S 6 10.00 Fair CLR 82.4 44.6 26% 81 30 0.0
12 15:35 SW 3 10.00 Fair CLR 82.4 44.6 26% 81 30.01 0.0
12 15:15 Calm 10.00 Fair CLR 82.4 44.6 26% 81 30.02 0.0
12 14:55 Calm 10.00 Fair CLR 80.6 44.6 28% 79 30.02 0.0
12 14:35 S 8 10.00 Fair CLR 80.6 44.6 28% 79 30.03 0.0
12 14:15 W 6 10.00 Fair CLR 80.6 44.6 28% 79 30.03 0.0
12 13:35 S 8 10.00 Fair CLR 78.8 42.8 28% 78 30.04 0.0
12 13:15 S 7 10.00 Fair CLR 78.8 44.6 30% 79 30.04 0.0
12 12:55 SW 9 10.00 Fair CLR 78.8 44.6 30% 79 30.05 0.0
12 12:35 SW 6 10.00 Fair CLR 77 44.6 32% 78 30.05 0.0
12 12:15 S 8 10.00 Fair CLR 77 44.6 32% 78 30.06 0.0
12 11:55 S 6 10.00 Fair CLR 77 46.4 34% 78 30.06 0.0
12 11:35 SW 6 10.00 Partly Cloudy SCT095 75.2 48.2 39% 77 30.06 0.0
12 11:15 W 8 10.00 Partly Cloudy SCT095 73.4 46.4 38% 30.07 0.0
12 10:35 Calm 10.00 Fair CLR 69.8 50 50% 30.07 0.0
12 10:15 SW 6 10.00 Partly Cloudy SCT120 69.8 50 50% 30.07 0.0
12 09:55 Calm 10.00 Mostly Cloudy BKN120 68 50 53% 30.07 0.0
12 09:35 SW 5 10.00 Partly Cloudy SCT110 68 51.8 56% 30.07 0.0
12 09:15 SW 3 10.00 Mostly Cloudy SCT100 BKN120 64.4 51.8 64% 30.07 0.0
12 08:55 S 3 10.00 Mostly Cloudy BKN100 BKN120 60.8 51.8 72% 30.07 0.0
12 08:35 SW 3 10.00 Overcast OVC100 60.8 50 68% 30.07 0.0
12 08:15 S 3 10.00 Mostly Cloudy BKN100 60.8 50 68% 30.06 0.0
12 07:55 S 3 10.00 Partly Cloudy SCT110 59 50 72% 30.06 0.0
12 07:35 S 3 10.00 Fair CLR 60.8 50 68% 30.06 0.0
12 07:15 Calm 10.00 Fair CLR 59 50 72% 30.06 0.0
12 06:55 Calm 10.00 Fair CLR 55.4 48.2 77% 30.05 0.0
12 06:35 S 3 10.00 Fair CLR 55.4 46.4 72% 30.04 0.0
12 06:15 S 3 10.00 Fair CLR 55.4 46.4 72% 30.04 0.0
12 05:55 S 3 10.00 Fair CLR 55.4 46.4 72% 30.04 0.0
12 05:35 S 5 10.00 Fair CLR 55.4 46.4 72% 30.03 0.0
12 05:15 S 5 10.00 Fair CLR 57.2 48.2 72% 30.03 0.0
12 04:55 S 5 10.00 Fair CLR 55.4 48.2 77% 30.03 0.0
12 04:35 S 3 10.00 Fair CLR 57.2 48.2 72% 30.03 0.0
12 04:15 S 3 10.00 Fair CLR 57.2 48.2 72% 30.02 0.0
12 03:55 S 3 10.00 Fair CLR 57.2 48.2 72% 30.02 0.0
12 03:35 Calm 10.00 Fair CLR 55.4 46.4 72% 30.02 0.0
12 03:15 Calm 10.00 Fair CLR 55.4 44.6 67% 30.02 0.0
12 02:55 Calm 10.00 Fair CLR 55.4 44.6 67% 30.02 0.0
12 02:35 Calm 10.00 Fair CLR 57.2 46.4 67% 30.02 0.0
12 02:15 Calm 10.00 Fair CLR 59 46.4 63% 30.01 0.0
12 01:55 S 3 10.00 Fair CLR 59 46.4 63% 30.01 0.0
12 01:35 S 3 10.00 Fair CLR 60.8 46.4 59% 30.01 0.0
12 01:15 S 6 10.00 Fair CLR 60.8 46.4 59% 30.01 0.0
12 00:55 S 7 10.00 Fair CLR 60.8 46.4 59% 30.01 0.0
12 00:35 S 5 10.00 Fair CLR 59 46.4 63% 30.01 0.0
12 00:15 Calm 10.00 Fair CLR 59 44.6 59% 30.01 0.0
11 23:55 Calm 10.00 Fair CLR 59 44.6 59% 30.01 0.0
11 23:35 Calm 10.00 Fair CLR 60.8 44.6 55% 30.01 0.0
11 23:15 Calm 10.00 Fair CLR 60.8 44.6 55% 30 0.0
11 22:55 Calm 10.00 Fair CLR 60.8 46.4 59% 30.01 0.0
11 22:35 Calm 10.00 Fair CLR 60.8 46.4 59% 30.01 0.0
11 22:15 Calm 10.00 Fair CLR 62.6 46.4 56% 30 0.0
11 21:55 Calm 10.00 Partly Cloudy SCT070 62.6 44.6 52% 30 0.0
11 21:35 Calm 10.00 Partly Cloudy SCT070 64.4 42.8 46% 29.99 0.0
11 21:15 Calm 10.00 Partly Cloudy SCT070 66.2 46.4 49% 29.99 0.0
11 20:55 Calm 10.00 Fair CLR 69.8 42.8 38% 29.99 0.0
11 20:35 Calm 10.00 Partly Cloudy SCT070 71.6 42.8 36% 29.99 0.0
11 20:15 Calm 10.00 Fair CLR 71.6 42.8 36% 29.98 0.0
11 19:55 Calm 10.00 Fair CLR 73.4 42.8 33% 29.98 0.0
11 19:35 SW 3 10.00 Fair CLR 73.4 42.8 33% 29.97 0.0
11 19:15 Calm 10.00 Fair CLR 71.6 42.8 36% 29.97 0.0
11 18:55 Calm 10.00 Partly Cloudy SCT065 73.4 42.8 33% 29.97 0.0
11 18:35 N 6 10.00 Partly Cloudy SCT065 77 42.8 30% 78 29.97 0.0
11 18:15 Calm 10.00 Fair CLR 73.4 42.8 33% 29.97 0.0
11 17:55 Calm 10.00 Partly Cloudy SCT065 71.6 41 33% 29.98 0.0
11 17:35 W 3 10.00 Fair CLR 73.4 41 31% 29.97 0.0
11 17:15 NW 6 10.00 Fair CLR 73.4 42.8 33% 29.97 0.0
11 16:55 Calm 10.00 Fair CLR 73.4 41 31% 29.98 0.0
11 16:35 NW 6 10.00 Fair CLR 75.2 41 29% 77 29.99 0.0
11 16:15 Calm 10.00 Partly Cloudy SCT065 75.2 41 29% 77 29.99 0.0
11 15:55 W 3 10.00 Partly Cloudy SCT060 73.4 41 31% 30 0.0
11 15:35 Calm 10.00 Partly Cloudy SCT060 71.6 41 33% 30 0.0
11 15:15 W 3 10.00 Partly Cloudy SCT060 75.2 41 29% 77 30 0.0
11 14:55 W 3 10.00 Fair CLR 73.4 41 31% 30 0.0
11 14:35 Calm 10.00 Fair CLR 73.4 42.8 33% 30 0.0
11 14:15 Calm 10.00 Partly Cloudy SCT055 71.6 41 33% 30 0.0
11 13:55 Calm 10.00 Partly Cloudy SCT055 73.4 41 31% 30.01 0.0
11 13:35 Calm 10.00 Fair CLR 71.6 42.8 36% 30.02 0.0
11 13:15 Calm 10.00 Partly Cloudy SCT050 69.8 42.8 38% 30.02 0.0
11 12:55 NW 7 10.00 Partly Cloudy SCT050 69.8 42.8 38% 30.03 0.0
11 12:35 N 6 10.00 Fair CLR 69.8 42.8 38% 30.02 0.0
11 12:15 N 6 10.00 Partly Cloudy SCT049 69.8 44.6 40% 30.03 0.0
11 11:55 Calm 10.00 Partly Cloudy SCT049 69.8 44.6 40% 30.03 0.0
11 11:35 Calm 10.00 Fair CLR 68 42.8 40% 30.03 0.0
11 11:15 Calm 10.00 Fair CLR 68 42.8 40% 30.03 0.0
11 10:55 SW 3 10.00 Fair CLR 68 44.6 43% 30.03 0.0
11 10:35 Calm 10.00 Fair CLR 64.4 44.6 49% 30.03 0.0
11 10:15 Calm 10.00 Fair CLR 64.4 48.2 56% 30.03 0.0
11 09:55 Calm 10.00 Fair CLR 62.6 51.8 68% 30.03 0.0
11 09:35 Calm 10.00 Fair CLR 60.8 50 68% 30.04 0.0
11 09:15 Calm 10.00 Fair CLR 59 50 72% 30.04 0.0
11 08:55 Calm 10.00 Fair CLR 55.4 51.8 88% 30.04 0.0
11 08:35 Calm 10.00 Fair CLR 57.2 51.8 82% 30.03 0.0
11 08:15 Calm 10.00 Fair CLR 55.4 53.6 94% 30.03 0.0
11 07:55 Calm 10.00 Fair CLR 53.6 51.8 94% 30.02 0.0
11 07:35 Calm 10.00 Fair CLR 51.8 50 94% 30.02 0.0
11 07:15 Calm 10.00 Fair CLR 50 48.2 94% 30.01 0.0
11 06:55 Calm 7.00 Fair CLR 46.4 44.6 93% 30.01 0.0
11 06:35 Calm 10.00 Fair CLR 44.6 42.8 93% 30 0.0
11 06:15 Calm 10.00 Fair CLR 44.6 41 87% 30 0.0
11 05:55 Calm 10.00 Fair CLR 44.6 42.8 93% 30 0.0
11 05:35 Calm 10.00 Fair CLR 44.6 42.8 93% 29.99 0.0
11 05:15 Calm 10.00 Fair CLR 46.4 42.8 87% 29.98 0.0
11 04:55 Calm 10.00 Fair CLR 44.6 42.8 93% 29.98 0.0
11 04:35 Calm 10.00 Fair CLR 44.6 42.8 93% 29.98 0.0
11 04:15 Calm 10.00 Fair CLR 46.4 42.8 87% 29.98 0.0
11 03:55 Calm 10.00 Fair CLR 46.4 42.8 87% 29.97 0.0
11 03:35 Calm 10.00 Fair CLR 46.4 42.8 87% 29.97 0.0
11 03:15 Calm 4.00 Fog/Mist CLR 46.4 42.8 87% 29.97 0.0
11 02:55 Calm 7.00 Fair CLR 46.4 42.8 87% 29.97 0.0
11 02:35 Calm 10.00 Fair CLR 44.6 41 87% 29.97 0.0
11 02:15 Calm 10.00 Fair CLR 46.4 41 82% 29.97 0.0
11 01:55 Calm 10.00 Fair CLR 46.4 41 82% 29.96 0.0
11 01:35 Calm 10.00 Fair CLR 46.4 42.8 87% 29.96 0.0
11 01:15 Calm 10.00 Fair CLR 46.4 41 82% 29.96 0.0
11 00:55 Calm 10.00 Partly Cloudy SCT065 SCT110 48.2 41 76% 29.96 0.0
11 00:35 Calm 10.00 Mostly Cloudy BKN065 BKN100 48.2 42.8 82% 29.96 0.0
11 00:15 Calm 10.00 Mostly Cloudy BKN065 BKN100 48.2 42.8 82% 29.96 0.0
10 23:55 Calm 10.00 Partly Cloudy SCT065 SCT100 48.2 42.8 82% 29.95 0.0
10 23:35 Calm 10.00 Partly Cloudy SCT110 50 44.6 82% 29.95 0.0
10 23:15 Calm 10.00 Fair CLR 50 41 71% 29.95 0.0
10 22:55 Calm 10.00 Fair CLR 50 42.8 76% 29.95 0.0
10 22:35 Calm 10.00 Fair CLR 51.8 44.6 77% 29.94 0.0
10 22:15 Calm 10.00 Partly Cloudy SCT060 53.6 44.6 72% 29.94 0.0
10 21:55 Calm 10.00 Fair CLR 53.6 44.6 72% 29.93 0.0
10 21:35 Calm 10.00 Fair CLR 53.6 42.8 67% 29.93 0.0
10 21:15 Calm 10.00 Fair CLR 55.4 44.6 67% 29.92 0.0
10 20:55 Calm 10.00 Mostly Cloudy BKN055 59 44.6 59% 29.92 0.0
10 20:35 Calm 10.00 Overcast OVC055 59 46.4 63% 29.92 0.0
10 20:15 Calm 10.00 Overcast OVC049 59 44.6 59% 29.92 0.0
10 19:55 N 6 10.00 Overcast OVC045 59 44.6 59% 29.91 0.0
10 19:35 NW 5 10.00 Overcast OVC045 59 46.4 63% 29.91 0.0
10 19:15 N 5 10.00 Overcast OVC043 59 44.6 59% 29.91 0.0
10 18:55 N 6 10.00 Overcast OVC041 59 46.4 63% 29.9 0.0
10 18:35 N 7 10.00 Overcast OVC041 59 44.6 59% 29.9 0.0
10 18:15 N 6 10.00 Overcast SCT032 OVC041 59 46.4 63% 29.9 0.0
10 17:55 N 6 10.00 Overcast OVC030 59 46.4 63% 29.9 0.0
10 17:35 N 9 10.00 Overcast BKN028 OVC036 57.2 44.6 63% 29.9 0.0
10 17:15 NW 9 10.00 Overcast OVC032 59 46.4 63% 29.9 0.0
10 16:55 N 9 10.00 Overcast OVC032 59 44.6 59% 29.9 0.0
10 16:35 N 8 10.00 Overcast OVC028 59 44.6 59% 29.9 0.0
10 16:15 NW 8 10.00 Overcast BKN028 OVC036 59 46.4 63% 29.9 0.0
10 15:55 NW 3 10.00 Overcast BKN026 BKN034 OVC050 59 48.2 68% 29.9 0.0
10 15:35 NW 9 10.00 Overcast OVC024 57.2 46.4 67% 29.9 0.0
10 15:15 NW 9 10.00 Overcast OVC024 55.4 46.4 72% 29.9 0.0
10 14:55 NW 9 10.00 Overcast OVC024 55.4 46.4 72% 29.9 0.0
10 14:35 N 9 10.00 Overcast BKN024 OVC030 57.2 46.4 67% 29.9 0.0
10 14:15 W 9 10.00 Overcast SCT023 BKN040 OVC050 59 46.4 63% 29.89 0.0
10 13:55 NW 7 10.00 Overcast SCT022 BKN041 OVC048 59 48.2 68% 29.9 0.0
10 13:35 N 7 10.00 Overcast OVC041 57.2 46.4 67% 29.9 0.0
10 13:15 NW 9 10.00 Overcast SCT019 SCT025 OVC041 57.2 46.4 67% 29.9 0.0
10 12:55 N 10 10.00 Overcast BKN025 BKN030 OVC041 57.2 46.4 67% 29.89 0.0
10 12:35 NW 9 10.00 Overcast SCT025 SCT032 OVC041 59 46.4 63% 29.88 0.0
10 12:15 N 9 10.00 Overcast BKN032 OVC039 59 46.4 63% 29.88 0.0
10 11:55 NW 8 10.00 Overcast BKN029 BKN036 OVC042 59 46.4 63% 29.87 0.0
10 11:35 N 7 10.00 Overcast BKN027 OVC034 59 46.4 63% 29.87 0.0
10 11:15 N 10 10.00 Overcast BKN027 BKN033 OVC044 59 46.4 63% 29.86 0.0
10 10:55 N 9 G 16 10.00 Overcast SCT027 OVC044 59 46.4 63% 29.85 0.0
10 10:35 N 9 10.00 Overcast OVC046 59 46.4 63% 29.85 0.0
10 10:15 N 8 10.00 Overcast SCT036 OVC046 59 46.4 63% 29.84 0.0
10 09:55 N 10 10.00 Overcast BKN034 OVC040 59 46.4 63% 29.84 0.0
10 09:35 NW 10 10.00 Mostly Cloudy BKN033 BKN048 59 46.4 63% 29.84 0.0
10 09:15 N 7 10.00 Mostly Cloudy BKN031 59 48.2 68% 29.83 0.0
10 08:55 NW 6 10.00 Partly Cloudy SCT031 59 50 72% 29.83 0.0
10 08:35 N 9 10.00 Overcast OVC033 57.2 50 77% 29.83 0.0
10 08:15 N 10 10.00 Mostly Cloudy BKN031 57.2 50 77% 29.83 0.0
10 07:55 N 10 G 16 10.00 Mostly Cloudy BKN029 55.4 51.8 88% 29.82 0.0
10 07:35 N 7 10.00 Fair CLR 55.4 50 82% 29.82 0.0
10 07:15 N 5 10.00 Fair CLR 53.6 50 88% 29.81 0.0
10 06:55 Calm 10.00 Fair CLR 53.6 50 88% 29.81 0.0
10 06:35 N 5 10.00 Fair CLR 53.6 50 88% 29.8 0.0
10 06:15 N 8 10.00 Fair CLR 53.6 48.2 82% 29.8 0.0
10 05:55 N 6 10.00 Fair CLR 53.6 46.4 77% 29.79 0.0
10 05:35 N 6 10.00 Fair CLR 53.6 46.4 77% 29.78 0.0
10 05:15 N 5 10.00 Fair CLR 53.6 44.6 72% 29.78 0.0
10 04:55 NW 5 10.00 Fair CLR 55.4 44.6 67% 29.77 0.0
10 04:35 NW 5 10.00 Fair CLR 55.4 44.6 67% 29.78 0.0
10 04:15 NW 5 10.00 Partly Cloudy SCT110 55.4 44.6 67% 29.78 0.0
Date Time (edt) Wind (mph) Vis. (mi.) Weather Sky Cond. Air Dwpt Max. Min. Relative Humidity Wind Chill (°F) Heat Index (°F) altimeter (in) sea level (mb) 1 hr 3 hr 6 hr
6 hour
Temperature (ºF) Pressure Precipitation (in)